Location: Newark
(43.4545°N, 5.8521°W)
Time: 18:08:15
(UTC+00:00)

ISS - Pass Details

Date: 21 November 2019
Orbit: 411 x 421 km, 51.6° (Epoch: 15 December)

Event Time Altitude Azimuth Distance (km) Brightness Sun altitude
Rises 19:44:22 0° 243° (WSW) 2,351 0.9 -30.7°
Reaches altitude 10° 19:46:28 10° 246° (WSW) 1,493 -0.2 -31.0°
Enters shadow 19:46:37 11° 247° (WSW) 1,433 -0.3 -31.1°
